Airfield :
LOGIN :

Register | Disclaimer

   EN    FR    IT 

 










Legend :    VFR   Marginal VFR   IFR   Intensive IFR   Very Intensive IFR
Visi :
Ceiling :
>= 8 km
>= 3000ft
5 to 8 km
1000 to 3000 ft
1500m to 5 km
500 to 1000 ft
800 to 1500m
200 to 500 ft
< 800m
< 200 ft
Symbols :   Thunderstorms  Fog  Heavy snow  Heavy precipitations  Wind > 20 kt
SIGMETs :     Misc.  Thunderstorms  Icing  Turbulence  Mountain Waves  Volcanic Ashes







- Airport Elevation : 162 ft
- IATA code : BOD
- Download approach charts


LFBD - Bordeaux / Merignac

CURRENT METAR :
  • 172030Z AUTO 29006KT CAVOK 19/15 Q1017 NOSIG

EXPIRED METARs :
  • 172000Z AUTO 31006KT 9999 FEW022 20/15 Q1017 NOSIG
  • 171930Z AUTO 30009KT 9999 SCT023 21/15 Q1017 NOSIG
  • 171900Z AUTO 31010KT 9999 FEW024 21/15 Q1017 NOSIG
  • 171830Z AUTO 30010KT CAVOK 23/15 Q1016 NOSIG
  • 171800Z AUTO 30011KT CAVOK 24/14 Q1016 NOSIG

TAF TAF LFBD
Valid from the 17 at 18:00 until the 19 at 00:00 UTC


171700Z 1718/1824 30008KT CAVOK TX26/1813Z TN17/1803Z
TEMPO 1720/1806 BKN020
ATIS : +33 5 57 92 81 04
No reported NOTAMs for that airfield.



MET'MAP, your aeronautical weather chart ! - Copyright ORBIFLY December 2007 - Disclaimer

ORBIFLY MET'MAP TEAM :

Programming & Development : Alexandra Zaïnal
Concept & Development : Baudouin d'Aumeries
Co-Development & Prog : Marc-Olivier Méhu
Technical & hardware support : Manuel Goepfert

Contact : metmap@orbifly.com




SOURCES & CREDITS :

   NOAA